KA8DUX-2 Weather Reports


Display with metric or nautical units.
time (UTC)temp
F
wind
direction
speed
MPH
gust
MPH
rain 1hr
in
rain 24hr
in
rain mn
in
humidity
%
barometer
mb
20260505092325 51 157 0.0 0.0 0.00 0.00 0.00 71 1001.1
20260505091822 51 222 1.0 1.0 0.00 0.00 0.00 70 1001.3
20260505091320 51 166 0.0 0.0 0.00 0.00 0.00 73 1001.0
20260505090818 51 134 0.0 0.0 0.00 0.00 0.00 72 1001.2
20260505090316 51 160 1.0 1.0 0.00 0.00 0.00 73 1001.0
20260505085812 51 152 1.0 1.0 0.00 0.00 0.00 72 1000.5
20260505085310 52 139 0.0 0.0 0.00 0.00 0.00 73 1000.2
20260505084808 52 230 1.0 2.0 0.00 0.00 0.00 72 1000.6
20260505084306 52 151 1.0 1.0 0.00 0.00 0.00 73 1000.5
20260505083803 52 137 0.0 0.0 0.00 0.00 0.00 74 1000.4
20260505083300 52 168 0.0 0.0 0.00 0.00 0.00 74 1000.5
20260505082756 52 168 0.0 1.0 0.00 0.00 0.00 75 1000.3
20260505082253 52 167 1.0 1.0 0.00 0.00 0.00 75 1000.2
20260505081749 52 128 0.0 0.0 0.00 0.00 0.00 76 1000.1
20260505081247 52 159 0.0 0.0 0.00 0.00 0.00 77 999.8
20260505080743 51 144 0.0 0.0 0.00 0.00 0.00 78 999.9
20260505080239 52 140 0.0 0.0 0.00 0.00 0.00 78 999.9
20260505075735 52 142 1.0 1.0 0.00 0.00 0.00 78 1000.1
20260505075232 52 133 0.0 1.0 0.00 0.00 0.00 78 999.8
20260505074729 52 212 1.0 1.0 0.00 0.00 0.00 77 1000.0
20260505074227 53 222 1.0 2.0 0.00 0.00 0.00 78 999.8
20260505073724 53 148 0.0 0.0 0.00 0.00 0.00 80 999.6
20260505073222 53 157 1.0 1.0 0.00 0.00 0.00 80 999.9
20260505072718 53 128 1.0 2.0 0.00 0.00 0.00 80 999.8
20260505072214 53 152 1.0 1.0 0.00 0.00 0.00 81 1000.0
20260505071709 53 194 1.0 1.0 0.00 0.00 0.00 82 999.8
20260505071207 53 232 2.0 2.0 0.00 0.00 0.00 83 999.6
20260505070705 53 155 0.0 0.0 0.00 0.00 0.00 83 999.9
20260505070201 54 194 0.0 1.0 0.00 0.00 0.00 83 999.9
20260505065656 54 208 1.0 1.0 0.00 0.00 0.00 83 999.8
20260505065154 54 134 0.0 0.0 0.00 0.00 0.00 83 999.2
20260505064651 54 135 0.0 0.0 0.00 0.00 0.00 83 999.4
20260505064149 55 180 1.0 1.0 0.00 0.00 0.00 83 999.7
20260505063646 55 165 1.0 2.0 0.00 0.00 0.00 83 999.3
20260505063142 55 142 0.0 0.0 0.00 0.00 0.00 85 999.3
20260505062638 55 137 0.0 1.0 0.00 0.00 0.00 85 999.1
20260505062136 56 216 3.0 5.0 0.00 0.00 0.00 85 999.1
20260505061633 56 173 1.0 1.0 0.00 0.00 0.00 86 999.2
20260505061131 56 179 0.0 1.0 0.00 0.00 0.00 86 999.5
20260505060628 56 211 2.0 2.0 0.00 0.00 0.00 86 999.4
20260505060125 56 248 1.0 2.0 0.00 0.00 0.00 87 999.2
20260505055620 56 211 0.0 0.0 0.00 0.00 0.00 87 999.3
20260505055117 57 138 1.0 1.0 0.00 0.00 0.00 86 999.3
20260505054614 57 212 3.0 3.0 0.00 0.00 0.00 86 999.1
20260505054112 57 157 0.0 0.0 0.00 0.00 0.00 86 999.2
20260505053609 57 190 0.0 1.0 0.00 0.00 0.00 86 998.9
20260505053105 57 224 3.0 3.0 0.00 0.00 0.00 85 998.7
20260505052603 57 133 0.0 0.0 0.00 0.00 0.00 86 998.6
20260505052100 58 210 3.0 3.0 0.00 0.00 0.00 85 998.8
20260505051557 58 242 2.0 2.0 0.00 0.00 0.00 85 999.0
20260505051055 58 171 0.0 1.0 0.00 0.00 0.00 84 998.6
20260505050553 58 292 1.0 2.0 0.00 0.00 0.00 84 998.8
20260505041520 61 191 1.0 1.0 0.00 0.00 0.00 81 998.2
20260505041018 61 212 0.0 1.0 0.00 0.00 0.00 81 998.1
20260505040515 61 163 1.0 2.0 0.00 0.00 0.00 80 998.3
20260505040012 61 132 1.0 1.0 0.00 0.10 0.10 81 998.4
20260505035508 61 143 1.0 1.0 0.00 0.10 0.10 81 998.2
20260505035005 61 130 0.0 0.0 0.00 0.10 0.10 80 998.4
20260505034501 61 131 1.0 2.0 0.00 0.10 0.10 80 998.0
20260505033959 62 124 0.0 0.0 0.00 0.10 0.10 80 998.0
20260505033455 62 161 0.0 1.0 0.00 0.10 0.10 80 997.8
20260505032954 61 121 0.0 1.0 0.00 0.10 0.10 81 997.8
20260505032451 61 209 0.0 1.0 0.00 0.10 0.10 82 997.7
20260505031947 61 130 0.0 0.0 0.00 0.10 0.10 83 997.8
20260505031444 61 134 0.0 0.0 0.00 0.10 0.10 82 997.9
20260505030941 61 302 1.0 2.0 0.00 0.10 0.10 82 997.7
20260505030437 61 196 2.0 3.0 0.00 0.10 0.10 80 997.4
20260505025932 61 188 2.0 2.0 0.00 0.10 0.10 82 996.9
20260505025430 61 245 1.0 1.0 0.00 0.10 0.10 83 996.6
20260505024928 61 163 0.0 1.0 0.00 0.10 0.10 83 996.8
20260505024425 60 147 5.0 6.0 0.00 0.10 0.10 84 996.6
20260505023922 60 197 2.0 2.0 0.00 0.10 0.10 87 996.5
20260505023419 60 130 1.0 1.0 0.00 0.10 0.10 87 996.7
20260505022917 61 114 0.0 1.0 0.00 0.10 0.10 86 996.9
20260505022414 61 146 3.0 5.0 0.00 0.10 0.10 86 997.0
20260505021911 61 158 0.0 1.0 0.00 0.10 0.10 89 997.1
20260505021407 61 239 0.0 1.0 0.00 0.10 0.10 88 997.4
20260505020903 62 150 1.0 2.0 0.59 0.10 0.10 87 997.0
20260505020359 63 240 7.0 9.0 0.59 0.10 0.10 84 996.9
20260505015856 69 123 5.0 6.0 0.12 0.02 0.02 72 997.0
20260505015353 69 246 9.0 13.0 0.00 0.00 0.00 62 997.0
20260505014850 69 119 3.0 3.0 0.00 0.00 0.00 62 996.3
20260505014347 70 268 3.0 3.0 0.00 0.00 0.00 61 996.1
20260505013844 70 288 5.0 9.0 0.00 0.00 0.00 61 996.5
20260505013341 70 203 2.0 5.0 0.00 0.00 0.00 61 996.2
20260505012839 70 188 3.0 5.0 0.00 0.00 0.00 60 996.2
20260505012337 70 208 2.0 3.0 0.00 0.00 0.00 59 996.0
20260505011833 70 198 2.0 2.0 0.00 0.00 0.00 58 996.1
20260505011330 71 227 3.0 5.0 0.00 0.00 0.00 57 995.9
20260505010826 71 195 3.0 6.0 0.00 0.00 0.00 56 995.9
20260505010322 71 217 3.0 6.0 0.00 0.00 0.00 55 995.9
20260505005818 71 131 2.0 3.0 0.00 0.00 0.00 54 995.9
20260505005315 72 248 2.0 3.0 0.00 0.00 0.00 52 995.9
20260505004813 72 172 2.0 2.0 0.00 0.00 0.00 50 995.8
20260505004308 72 292 2.0 3.0 0.00 0.00 0.00 48 995.9
20260505003806 72 223 5.0 7.0 0.00 0.00 0.00 45 995.8
20260505003303 73 162 4.0 6.0 0.00 0.00 0.00 41 995.8
20260505002759 73 142 3.0 6.0 0.00 0.00 0.00 41 995.5
20260505002257 73 217 3.0 3.0 0.00 0.00 0.00 40 995.4
20260505001755 73 217 2.0 2.0 0.00 0.00 0.00 40 995.4
20260505001251 73 136 1.0 3.0 0.00 0.00 0.00 40 995.4
20260505000749 73 319 0.0 1.0 0.00 0.00 0.00 40 995.5
20260505000247 74 126 0.0 0.0 0.00 0.00 0.00 40 995.4
20260504235743 74 129 0.0 1.0 0.00 0.00 0.00 40 995.5
20260504235239 74 174 1.0 1.0 0.00 0.00 0.00 40 995.4
20260504234736 74 204 1.0 2.0 0.00 0.00 0.00 39 995.7
20260504234234 75 248 2.0 2.0 0.00 0.00 0.00 39 995.8
20260504233730 75 162 1.0 1.0 0.00 0.00 0.00 38 995.8
20260504233226 75 124 3.0 5.0 0.00 0.00 0.00 38 995.8
20260504232723 75 231 3.0 5.0 0.00 0.00 0.00 37 995.7
20260504232220 75 152 3.0 3.0 0.00 0.00 0.00 38 996.1
20260504231716 75 169 1.0 1.0 0.00 0.00 0.00 40 996.2
20260504231213 75 186 3.0 5.0 0.00 0.00 0.00 39 996.3
20260504230709 74 167 3.0 5.0 0.00 0.00 0.00 39 996.5
20260504230208 74 244 1.0 1.0 0.00 0.00 0.00 39 996.7
20260504225706 75 133 1.0 2.0 0.00 0.00 0.00 39 996.6
20260504225202 75 218 4.0 5.0 0.00 0.00 0.00 38 996.8
20260504224659 75 257 3.0 6.0 0.00 0.00 0.00 37 996.6
20260504224156 75 177 2.0 2.0 0.00 0.00 0.00 37 997.0
20260504223653 76 218 5.0 6.0 0.00 0.00 0.00 38 996.9
20260504223148 76 230 2.0 2.0 0.00 0.00 0.00 36 997.0
20260504222646 76 316 2.0 2.0 0.00 0.00 0.00 37 997.1
20260504222142 75 176 3.0 5.0 0.00 0.00 0.00 36 997.2
20260504221640 76 155 3.0 6.0 0.00 0.00 0.00 36 997.1
20260504221137 76 129 1.0 2.0 0.00 0.00 0.00 37 997.2
20260504220633 75 207 3.0 5.0 0.00 0.00 0.00 37 997.1
20260504220131 76 273 3.0 6.0 0.00 0.00 0.00 37 997.4
20260504215627 76 241 4.0 6.0 0.00 0.00 0.00 37 997.2
20260504215125 75 214 3.0 3.0 0.00 0.00 0.00 37 997.3
20260504214621 75 226 1.0 2.0 0.00 0.00 0.00 37 997.4
20260504214117 75 176 3.0 5.0 0.00 0.00 0.00 36 997.6
20260504213613 75 240 7.0 10.0 0.00 0.00 0.00 36 997.7
20260504213110 76 210 14.0 17.0 0.00 0.00 0.00 35 997.5
20260504212606 76 166 3.0 5.0 0.00 0.00 0.00 36 997.9
20260504212104 76 259 4.0 8.0 0.00 0.00 0.00 35 997.8
20260504211601 76 196 6.0 8.0 0.00 0.00 0.00 34 997.8
20260504211057 76 137 2.0 3.0 0.00 0.00 0.00 34 998.0
20260504210555 76 248 11.0 20.0 0.00 0.00 0.00 32 998.3
20260504210051 76 47 5.0 8.0 0.00 0.00 0.00 34 997.9
20260504205549 76 187 9.0 15.0 0.00 0.00 0.00 33 998.3
20260504205047 76 184 5.0 8.0 0.00 0.00 0.00 33 998.0
20260504204544 76 148 3.0 5.0 0.00 0.00 0.00 33 998.2
20260504204044 76 211 2.0 3.0 0.00 0.00 0.00 31 998.4
20260504203541 76 288 6.0 11.0 0.00 0.00 0.00 32 998.5
20260504203038 77 208 7.0 8.0 0.00 0.00 0.00 29 998.3
20260504202534 77 144 7.0 11.0 0.00 0.00 0.00 29 998.4
20260504202031 76 233 5.0 8.0 0.00 0.00 0.00 29 998.5
20260504201528 77 279 3.0 5.0 0.00 0.00 0.00 29 998.6
20260504201026 76 250 3.0 3.0 0.00 0.00 0.00 32 998.5
20260504200521 76 228 9.0 10.0 0.00 0.00 0.00 29 998.7
20260504200019 76 220 5.0 6.0 0.00 0.00 0.00 30 998.6
20260504195515 76 210 3.0 3.0 0.00 0.00 0.00 30 998.6
20260504195011 76 144 2.0 2.0 0.00 0.00 0.00 29 998.4
20260504194508 76 253 6.0 7.0 0.00 0.00 0.00 28 998.7
20260504194003 77 200 5.0 6.0 0.00 0.00 0.00 29 998.7
20260504193501 78 158 2.0 2.0 0.00 0.00 0.00 30 998.7
20260504192959 77 250 7.0 8.0 0.00 0.00 0.00 29 998.7
20260504192456 77 274 3.0 7.0 0.00 0.00 0.00 29 998.8
20260504191955 77 221 4.0 5.0 0.00 0.00 0.00 29 998.8
20260504191453 76 239 5.0 8.0 0.00 0.00 0.00 28 998.8
20260504190947 77 252 8.0 11.0 0.00 0.00 0.00 28 999.0
20260504190444 76 224 4.0 6.0 0.00 0.00 0.00 29 998.7
20260504185941 77 220 5.0 8.0 0.00 0.00 0.00 29 998.8
20260504185438 77 162 3.0 5.0 0.00 0.00 0.00 29 998.6
20260504184934 78 227 5.0 6.0 0.00 0.00 0.00 27 998.8
20260504184429 78 149 2.0 3.0 0.00 0.00 0.00 29 998.8
20260504183926 76 145 5.0 6.0 0.00 0.00 0.00 28 998.5
20260504183423 76 264 8.0 13.0 0.00 0.00 0.00 27 998.8
20260504182921 77 275 4.0 5.0 0.00 0.00 0.00 27 998.9
20260504182418 77 311 2.0 2.0 0.00 0.00 0.00 28 998.9
20260504181914 77 235 6.0 10.0 0.00 0.00 0.00 26 998.9
20260504181412 77 129 2.0 3.0 0.00 0.00 0.00 27 998.9
20260504180910 77 107 2.0 3.0 0.00 0.00 0.00 27 998.9
20260504180409 78 199 6.0 8.0 0.00 0.00 0.00 26 999.0
20260504175907 78 218 3.0 5.0 0.00 0.00 0.00 26 999.1
20260504175403 78 246 2.0 5.0 0.00 0.00 0.00 27 998.8
20260504174901 78 223 3.0 6.0 0.00 0.00 0.00 26 999.2
20260504174358 77 181 3.0 3.0 0.00 0.00 0.00 27 999.1
20260504173855 77 8 3.0 5.0 0.00 0.00 0.00 27 999.2
20260504173352 77 272 3.0 3.0 0.00 0.00 0.00 27 999.4
20260504172849 77 147 3.0 5.0 0.00 0.00 0.00 27 999.5
20260504172346 76 178 5.0 7.0 0.00 0.00 0.00 26 999.5
20260504171841 76 163 6.0 8.0 0.00 0.00 0.00 25 999.5
20260504171339 77 245 8.0 10.0 0.00 0.00 0.00 27 999.5
20260504170836 78 352 4.0 6.0 0.00 0.00 0.00 27 999.5
20260504170333 77 242 2.0 2.0 0.00 0.00 0.00 29 999.6
20260504160251 73 113 1.0 2.0 0.00 0.00 0.00 36 1000.4
20260504150716 70 218 3.0 3.0 0.00 0.00 0.00 48 1001.1
20260504150213 69 221 2.0 2.0 0.00 0.00 0.00 49 1000.9
20260504141142 64 96 1.0 1.0 0.00 0.00 0.00 60 1001.8
20260504140639 64 259 2.0 6.0 0.00 0.00 0.00 60 1001.8
20260504140135 63 218 2.0 3.0 0.00 0.00 0.00 60 1001.6
20260504130603 57 185 2.0 3.0 0.00 0.00 0.00 72 1002.3
20260504110451 49 125 1.0 1.0 0.00 0.00 0.00 86 1002.0
20260504100407 49 162 1.0 1.0 0.00 0.00 0.00 85 1001.9